This is the latest recevied weather packets stored in our database for station/object KC5EZZ-2. If no packets are shown the sender has not sent any weather packets the latest 10 day(s).
| Time | Temp. | Humidity | Pressure | Rain* | Wind** | Luminosity | Snow |
|---|---|---|---|---|---|---|---|
| 1778077603 | 12.78° C | - | - | 0 mm | 4.02 m/s, 322° | - | - |
| 1778077303 | 12.22° C | - | - | 0 mm | 4.92 m/s, 316° | - | - |
| 1778077001 | 12.22° C | - | - | 0 mm | 3.13 m/s, 314° | - | - |
| 1778076702 | 12.22° C | - | - | 0 mm | 4.47 m/s, 345° | - | - |
| 1778076402 | 12.22° C | - | - | 0 mm | 4.02 m/s, 25° | - | - |
| 1778076099 | 12.22° C | - | - | 0 mm | 4.47 m/s, 3° | - | - |
| 1778075800 | 11.67° C | - | - | 0 mm | 4.47 m/s, 350° | - | - |
| 1778075500 | 11.67° C | - | - | 0 mm | 4.02 m/s, 359° | - | - |
| 1778075198 | 11.67° C | - | - | 0 mm | 4.47 m/s, 345° | - | - |
| 1778074899 | 11.67° C | - | - | 0 mm | 4.02 m/s, 353° | - | - |
| 1778074599 | 11.67° C | - | - | 0 mm | 4.47 m/s, 354° | - | - |
| 1778074297 | 11.67° C | - | - | 0 mm | 4.92 m/s, 1° | - | - |
| 1778073998 | 11.67° C | - | - | 0 mm | 4.02 m/s, 349° | - | - |
| 1778073697 | 11.67° C | - | - | 0 mm | 4.47 m/s, 10° | - | - |
| 1778073395 | 11.67° C | - | - | 0 mm | 3.58 m/s, 359° | - | - |
| 1778073096 | 11.11° C | - | - | 0 mm | 4.02 m/s, 18° | - | - |
| 1778072796 | 11.11° C | - | - | 0 mm | 5.36 m/s, 38° | - | - |
| 1778072494 | 11.11° C | - | - | 0 mm | 5.81 m/s, 18° | - | - |
| 1778072194 | 11.67° C | - | - | 0 mm | 5.36 m/s, 336° | - | - |
| 1778071895 | 11.67° C | - | - | 0 mm | 4.47 m/s, 6° | - | - |
| 1778071592 | 12.22° C | - | - | 0 mm | 4.02 m/s, 39° | - | - |
| 1778071293 | 11.67° C | - | - | 0 mm | 2.68 m/s, 10° | - | - |
| 1778070993 | 11.67° C | - | - | 0 mm | 3.13 m/s, 35° | - | - |
| 1778070691 | 11.67° C | - | - | 0 mm | 3.58 m/s, 30° | - | - |
| 1778070392 | 12.22° C | - | - | 0 mm | 3.58 m/s, 14° | - | - |
* Rain latest hour (hover to see other rain measurements)
** Current wind speed in m/s (hover to see current wind gust speed)